Location: Chimay
(50.0486°N, 4.3171°E)
Time: 08:35:08
(UTC+00:00)

USA 267 - Pass Details

Date: 08 August 2020
Orbit: 1102 x 1106 km, 123.0° (Epoch: 18 September)

Event Time Altitude Azimuth Distance (km) Brightness Sun altitude
Rises 23:05:35 0° 69° (ENE) 3,925 6.3 -23.5°
Reaches altitude 10° 23:08:08 10° 65° (ENE) 2,967 5.7 -23.6°
Maximum altitude 23:14:24 51° 352° (N) 1,370 4.1 -23.7°
Drops below altitude 10° 23:20:40 10° 279° (W) 2,966 5.7 -23.9°
Sets 23:23:13 0° 275° (W) 3,924 6.3 -23.9°
